Warning: Javascript must be enabled to use all the features on this page!


Page Loading - Please Wait...

Click to hideNews Bulletins

Peak Streamflow for the Nation

USGS 10350000 TRUCKEE RV AT VISTA, NV

Washoe County, Nevada
Hydrologic Unit Code 16050102
Latitude  39°31'14", Longitude 119°42'00" NAD27
Drainage area 1,431  square miles
Gage datum 4,371.16 feet above NAVD88
Output formats
Table
Graph
Tab-separated file
peakfq (watstore) format
Reselect output format
Water
Year
Date Gage
Height
(feet)
Stream-
flow
(cfs)
1900 1900-05-03   1,4801,6
1901 1901-05-11   4,2101,6
1902 1902-04-06   4,3401,6
1903 1903-03-31   5,6501,6
1904 1904-04-15   8,9401,6
1905 1904-10-12   2,0601,6
1906 1906-05-07   5,4701,6
1907 1907-03-18   17,0001,2,6
1933 1933-05-30   1,6001,6,F
1934 1934-03-29   1,7301,6,F
1935 1935-04-29   2,5101,6,F
1936 1936-04-18   3,0701,6,F
1937 1937-04-15   2,3701,6,F
1938 1937-12-12   9,7601,6,F
1939 1939-03-23   8681,6,F
1940 1940-03-31   4,8501,6,F,R
1941 1941-05-12   1,9301,6,F
1942 1942-06-06   3,1401,6,F
1943 1943-01-22   7,6801,6,F
1944 1944-05-08   1,2901,6,F
1945 1945-02-02   2,9101,6,F
1946 1946-04-26   2,4601,6,F
1947 1946-11-23   1,2201,6,F
1948 1948-06-09   1,5001,6,F
1949 1949-05-14   1,6001,6,F
1950 1950-05-29   2,3301,6,F
1951 1950-11-21   8,7501,6,F
1952 1952-05-04   7,0901,6,F
1953 1953-06-20   3,0501,6,F
1954 1954-03-10   1,4001,6,F
1959 1959-02-17   1,8106
1960 1960-02-08 6.68 2,8506
1961 1961-06-02 4.02 1,1706
1962 1962-05-06 6.06 2,1606
1963 1963-02-01 16.76 18,9006
1964 1963-11-15 6.00 2,1706
1965 1964-12-23 13.51 11,7006
1966 1965-12-09 5.672 2,0506
1967 1967-05-22 10.87 7,0406
1968 1968-02-25 5.85 2,1806
1969 1969-05-13 9.46 5,5106
1970 1970-01-22 11.29 7,6306
1971 1971-06-27 7.63 3,5506
1972 1972-05-19 5.41 1,8406
1973 1973-01-16 6.47 2,3306
1974 1974-01-17 8.50 4,0006
1975 1975-05-15 8.37 3,9506
1976 1975-10-27 4.88 1,5306
1977 1977-02-21 3.462 8066
1978 1978-05-22 7.42 3,0006
1979 1979-05-15 6.46 2,4506
1980 1980-01-14 13.10 9,9706
1981 1981-05-19 6.61 2,6706
1982 1981-12-20 12.75 8,5506
1983 1983-03-13 11.72 8,0406
1984 1983-11-24 11.19 7,2306
1985 1985-05-03 5.49 2,0506
1986 1986-02-18 15.82 16,1006
1987 1987-05-17 5.67 2,0406
1988 1988-04-14 4.44 8556
1989 1988-11-23 5.92 2,1406
1990 1990-04-21 4.74 1,3006
1991 1991-03-05 6.69 2,7406
1992 1992-02-22 2.882 5666
1993 1993-05-24 6.50 2,5806
1994 1994-05-12 7.776 1,6606
1995 1995-03-10 15.41 8,8006
1996 1996-05-18 15.52 7,2006
1997 1997-01-02 24.16 18,5006
1998 1998-03-24 15.52 6,0906
1999 1999-05-27 12.38 4,6606
2000 2000-02-14 8.11 1,9906
2001 2001-03-26 4.93 6876
2002 2002-04-15 7.34 1,7406
2003 2003-05-30 7.05 1,6106
2004 2004-03-24 6.36 1,2806
2005 2005-05-19 11.21 4,0106
2006 2005-12-31 20.28 13,7006
2007 2007-02-11 6.54 1,3706
2008 2008-01-04 8.93 2,5606
2009 2009-05-05 8.22 2,1706
2010 2010-06-07 9.31 2,6006
2011 2011-06-23 10.35 3,4606
2012 2012-04-26 8.11 2,1406
2013 2012-12-02 11.37 4,1806
2014 2014-02-10 6.84 1,5006
2015 2015-02-09 8.32 2,2506
2016 2016-01-30 9.57 3,0706
2017 2017-01-09 19.44 11,8006
2018 2018-04-07 13.85 6,1906
2019 2019-04-09 12.62 5,1006
2020 2020-05-18 7.71 1,9006
2021 2021-05-07 5.11 7656
?
  Peak Gage-Height Qualification Codes.
?
  Peak Streamflow Qualification Codes.